Regional Weather Roundup
Issued by NWS

Home | Current Version | Previous Version | Graphics & Text | Print | Product List | Glossary On
Versions: 1 2 3 4 5 6 7 8 9 10 11 12 13 14 15 16 17 18 19 20 21 22 23 24 25 26 27 28 29 30 31 32 33 34 35 36 37 38 39 40 41 42 43 44 45 46 47 48 49 50
000
ASUS45 KABQ 292010
RWRNM
WEATHER ROUNDUP FOR NEW MEXICO
NATIONAL WEATHER SERVICE ALBUQUERQUE NM
200 PM MDT SUN MAR 29 2015

NOTE: "FAIR" MEANS FEW OR NO CLOUDS BELOW 12,000 FEET AGL WITH NO
       SIGNIFICANT WEATHER OR OBSTRUCTIONS TO VISION.

      THIS PRODUCT IS RELEASED AS TWO VERSIONS.  ONE VERSION NEAR
      THE TOP OF THE HOUR CONTAINING PRELIMINARY DATA FROM ALBUQUERQUE
      AND OTHER STATIONS.  A FINAL VERSION WITH ADDITIONAL DATA IS
      ISSUED ABOUT 10 MINUTES AFTER THE HOUR.

NMZ501-503-504-510>518-292100-
NORTHWEST PLATEAU/NORTHCENTRAL MOUNTAINS

CITY           SKY/WX    TMP DP  RH WIND       PRES   REMARKS
FARMINGTON     SUNNY     73  20  13 W9G18     30.20F
LOS ALAMOS     MOSUNNY   67  19  16 S9G17     30.29F
SANTA FE       MOSUNNY   70  14  11 S5        30.24F
TAOS           SUNNY     68  21  17 SW13      30.27F
ANGEL FIRE     FAIR      59  22  24 SE7G21    30.34F

$$
NMZ402-403-502-505>509-292100-
WESTCENTRAL MOUNTAINS/SOUTHWEST MOUNTAINS

CITY           SKY/WX    TMP DP  RH WIND       PRES   REMARKS
GALLUP         SUNNY     73  11   9 W10       30.26F
GRANTS         MOSUNNY   72  13  10 N8        30.26F
SILVER CITY    PTSUNNY   77  14   9 SW12G25   30.24F

$$
NMZ407-409-411-412-292100-
SOUTHERN DESERTS

CITY           SKY/WX    TMP DP  RH WIND       PRES   REMARKS
LORDSBURG      FAIR      81  14   8 NW8       30.18F
DEMING         MOSUNNY   84  15   7 W9        30.17F
LAS CRUCES     SUNNY     82   8   6 CALM      30.18F
HOLLOMAN AFB   MOSUNNY   84   9   6 VRB5      30.13F
ALAMOGORDO     PTSUNNY   82   9   6 W10       30.16F
T OR C         PTSUNNY   81  10   7 SW8       30.16F

$$
NMZ519>523-292100-
CENTRAL VALLEYS/CENTRAL HIGHLANDS

CITY           SKY/WX    TMP DP  RH WIND       PRES   REMARKS
ALBUQUERQUE    PTSUNNY   75  20  12 NW5       30.21F
DOUBLE EAGLE   PTSUNNY   75  18  11 SW15      30.23F
MORIARTY ARPT  FAIR      76  12   8 W13       30.24F
CLINES CORNERS MOSUNNY   70  10  10 CALM      30.28F
BELEN          FAIR      79  17   9 SE7       30.19F
SOCORRO        FAIR      83  17   8 NE5       30.16F

$$
NMZ524>526-539-540-292100-
SOUTHCENTRAL MOUNTAINS

CITY           SKY/WX    TMP DP  RH WIND       PRES   REMARKS
RUIDOSO        MOSUNNY   72  10   9 N10G18    30.31F

$$
NMZ527>531-292100-
NORTHEAST HIGHLANDS/NORTHEAST PLAINS

CITY           SKY/WX    TMP DP  RH WIND       PRES   REMARKS
LAS VEGAS      PTSUNNY   68  24  19 S18G25    30.29F
RATON          SUNNY     66  23  19 E6        30.27F
CLAYTON        SUNNY     66  21  18 N15G31    30.25F

$$
NMZ532>537-292100-
EASTCENTRAL PLAINS

CITY           SKY/WX    TMP DP  RH WIND       PRES   REMARKS
TUCUMCARI      SUNNY     74  32  21 E20G31    30.20F
CANNON AFB     SUNNY     76  31  19 NE21G29   30.19S
CLOVIS AIRPORT SUNNY     75  34  22 NE26      30.19F

$$
NMZ028-029-538-292100-
SOUTHEAST PLAINS

CITY           SKY/WX    TMP DP  RH WIND       PRES   REMARKS
ROSWELL        SUNNY     86  20   9 NE9       30.12F
ARTESIA        SUNNY     86  27  11 NE13G20   30.12F
CARLSBAD       SUNNY     89  21   8 NE6G16    30.09F
HOBBS          SUNNY     84  28  13 N17G25    30.12F


$$


USA.gov is the U.S. government's official web portal to all federal, state and local government web resources and services.